STARLINK-11520, 62834

Orbit data source: Space-Track

STARLINK-11520, 62834 is a payload satellite owned by SpaceX/Seattle (US) in LEO that was launched on Mon, 27 Jan 2025 UTC via an FALCON 9 launch vehicle from the Air Force Eastern Test Range (AFETR). Payload-class satellites include a variety of spacecraft equipped with specific instruments for various scientific and technological missions. These include communications satellites like Starlink; space stations such as the ISS; scientific satellites like the Hubble; Earth observation satellites from companies like Planet Labs, Umbra, and HawkEye 360; GPS; miniature CubeSats for education and research; and military/defense satellites.

Loading next visibility...
Identifier
62834, 2025-019F
Orbit
LEO
Country
Flag of USUS
Related business
Manufacturer
SpaceX/Seattle
Mission
Operational Commercial Communications
Bus & Motor
STARLINK V2MD, Unknown motor
Mass
960 kg wet, ~910 kg dry
Launch date (UTC)
2025-01-27 (1 year ago)
Launch vehicle
FALCON 9
Launch site
Air Force Eastern Test Range (AFETR)
Object type
Payload
Rocket body
Debris
Shape & HBR
Box + 2 Pan, 18.1 m
Radar Cross Section
36.964 m², Large (>1 m²)

Expand to show TLE details & history
Last TLE update: 21 hours ago

TLE from 21 hours ago
0 STARLINK-11520
1 62834U 25019F   26033.72199566  .00332696  00000-0  24844-2 0  9992
2 62834  42.9998 156.5409 0001587 294.6633  65.4069 15.70930679 58392
Epoch: 2026-02-02T17:19Z
TLE epoch observation values (Epoch: 2026-02-02T17:19:40.425Z)
Latitude
-0.00002°
Longitude
123.70923°
Altitude
355.562 km
Speed
7.698 km/s
True Right ascension
10h 26m 09s
True Declination
0° 00' 00"
Sunlit
Object was in full shadow at epoch
Visualization orbit readout
Latitude
Unknown
Longitude
Unknown
Altitude
Unknown
Speed
Unknown
Apparent Right ascension
Unknown
Apparent Declination
Unknown
Sunlit
N/A
Visualization observer readout
Local Sidereal Time
15:47:07
Azimuth
Unknown
Elevation
Unknown
Doppler factor
Unknown
Orbital elements
Apogee altitude
359.287 km
Perigee altitude
357.149 km
Semi-major axis
6,736.355 km
Eccentricity
0.00016
Inclination
42.9998°
RAAN
156.5409°
Arg. of periapsis
294.6633°
True anomaly
65.42344°
Mean anomaly
65.4069°
Eccentric anomaly
65.41517°
Mean motion
3.9256 °/min
Orbital period
91.71 mins
BSTAR
0.0024844
Loading maneuver chart data...
Computing Atmospheric mass density...
Loading historical data...
Loading historical data...
Loading historical data...
Loading historical data...
Loading historical data...
Loading historical data...
Loading historical data...

Documentation

Showing up to 5 results
|